Location: Marcé
(47.5801°N, 0.3280°W)
Time: 17:42:08
(UTC+01:00)

Tiros 1 despin weight - Pass Details

Date: 03 December 2021
Orbit: 592 x 641 km, 48.2° (Epoch: 25 January)

Event Time Altitude Azimuth Distance (km) Brightness Sun altitude
Rises 19:28:37 0° 285° (WNW) 2,827 ? -22.3°
Reaches altitude 10° 19:30:58 10° 279° (W) 1,925 ? -22.7°
Maximum altitude 19:35:08 43° 208° (SSW) 837 ? -23.4°
Enters shadow 19:36:15 35° 169° (S) 958 ? -23.6°
